Weather reports worldwide

Advertisment
Cap Cepet, France (7661): temperature & dewpoint: 12.10.2018 03:00:00 - 18.10.2018 03:00:00 (CEST)Cap Cepet, France (7661): wind speed & gusts: 12.10.2018 03:00:00 - 18.10.2018 03:00:00 (CEST)Cap Cepet, France (7661): wind direction: 12.10.2018 03:00:00 - 18.10.2018 03:00:00 (CEST)Cap Cepet, France (7661): reduced air pressure: 12.10.2018 03:00:00 - 18.10.2018 03:00:00 (CEST)Cap Cepet, France (7661): visibility: 12.10.2018 03:00:00 - 18.10.2018 03:00:00 (CEST)Cap Cepet, France (7661): precipitation: 12.10.2018 03:00:00 - 18.10.2018 03:00:00 (CEST)
Date & Time tt [°C] td [°C] ff [km/h] ff [kn] fx [km/h] fx [kn] dd ppp [hPa] vv [km] rr [mm]
18.10.2018 03:00:00 17,5 17,3 26 14 41 22 NE 1013,3 - 0,0
18.10.2018 02:00:00 17,2 17,2 29 16 44 24 NE 1013,8 - 0,0
18.10.2018 01:00:00 17,0 17,0 32 18 50 27 NE 1013,8 - 0,0
18.10.2018 00:00:00 17,3 17,3 29 16 48 26 NE 1014,1 - 0,0
17.10.2018 23:00:00 17,1 17,1 29 16 43 23 NE 1014,3 - 0,0
17.10.2018 22:00:00 17,1 17,1 30 16 42 23 NE 1013,9 - 0,0
17.10.2018 21:00:00 17,1 17,1 25 14 37 20 NE 1013,9 - 0,8
17.10.2018 20:00:00 17,5 17,5 23 13 44 24 NE 1014,2 60 1,8
17.10.2018 19:00:00 18,6 17,3 25 13 44 24 NE 1013,7 - 0,0
17.10.2018 18:00:00 18,8 17,5 23 13 40 22 NE 1013,6 - 0,0
17.10.2018 17:00:00 20,5 16,9 25 13 41 22 NE 1013,9 - 0,0
17.10.2018 16:00:00 21,4 16,4 26 14 44 24 NE 1013,8 - 0,0
17.10.2018 15:00:00 21,5 16,0 31 17 50 27 NE 1013,7 - 0,0
17.10.2018 14:00:00 21,6 16,3 24 13 43 23 NE 1014,3 20 0,0
17.10.2018 13:00:00 21,6 16,5 28 15 44 24 NE 1014,8 - 0,0
17.10.2018 12:00:00 21,8 17,0 23 12 44 24 NE 1015,6 - 0,0
17.10.2018 11:00:00 18,7 16,7 17 9 27 15 NE 1015,9 20 0,0
17.10.2018 10:00:00 18,4 15,8 19 11 27 15 NE 1015,8 - 0,0
17.10.2018 09:00:00 17,2 16,4 18 10 32 17 NE 1015,7 - 0,0
17.10.2018 08:00:00 17,3 16,2 23 12 38 21 NE 1015,5 - 0,0
17.10.2018 07:00:00 17,7 15,9 26 14 38 20 NE 1015,4 - 0,0
17.10.2018 06:00:00 17,6 15,4 27 15 41 22 NE 1015,4 - 0,0
17.10.2018 05:00:00 17,6 15,4 29 16 40 22 NE 1015,5 - 0,0
17.10.2018 04:00:00 17,1 16,0 22 12 37 20 NE 1016,2 - 0,0
17.10.2018 03:00:00 16,6 16,3 20 11 27 15 NE 1016,7 - 0,0
17.10.2018 02:00:00 16,8 16,5 18 10 32 17 NE 1017,0 - 0,0
17.10.2018 01:00:00 16,5 16,3 16 9 36 20 NE 1017,2 - 0,2
17.10.2018 00:00:00 16,5 16,3 25 13 41 22 NE 1017,6 - 0,0
16.10.2018 23:00:00 16,4 16,4 22 12 34 19 NE 1018,0 - 0,0
16.10.2018 22:00:00 16,2 16,2 20 11 42 23 NE 1018,1 - 0,0
16.10.2018 21:00:00 16,2 16,2 18 10 33 18 NE 1017,8 - 1,0
16.10.2018 20:00:00 17,0 16,5 23 13 43 23 NE 1017,8 - 0,0
16.10.2018 19:00:00 17,7 16,2 22 12 32 17 NE 1017,4 - 0,0
16.10.2018 18:00:00 17,8 16,1 20 11 39 21 NE 1017,0 - 0,0
16.10.2018 17:00:00 18,2 16,2 24 13 42 23 NE 1016,7 - 0,0
16.10.2018 16:00:00 18,7 16,1 26 14 48 26 NE 1016,7 - 0,0
16.10.2018 15:00:00 18,4 15,6 24 13 52 28 ENE 1016,6 - 0,0
16.10.2018 14:00:00 19,6 15,7 36 19 64 35 NE 1016,8 - 0,0
16.10.2018 13:00:00 16,9 16,6 39 21 59 32 NE 1017,4 - 0,0
16.10.2018 12:00:00 17,4 17,4 25 14 36 20 NE 1017,4 - 0,2
16.10.2018 11:00:00 16,2 - 22 12 46 25 NE - - 1,1
16.10.2018 10:00:00 15,6 - 31 17 56 30 NE - - 2,8
16.10.2018 09:00:00 15,5 - 35 19 55 30 NE - - 1,0
16.10.2018 08:00:00 15,4 - 35 19 50 27 NE - 6 1,0
16.10.2018 07:00:00 15,4 15,4 32 18 46 25 NE 1015,2 - 0,2
16.10.2018 06:00:00 16,1 16,1 28 15 37 20 NE 1015,3 - 0,0
16.10.2018 05:00:00 17,3 17,3 23 12 44 24 NE 1015,0 15 0,8
16.10.2018 04:00:00 16,6 16,6 27 15 46 25 ENE 1015,3 - 3,2
16.10.2018 03:00:00 16,8 16,8 23 12 47 25 ENE 1015,8 - 2,4
16.10.2018 02:00:00 16,5 16,5 31 17 55 30 ENE 1015,7 - 3,2
16.10.2018 01:00:00 16,8 16,8 20 11 58 32 E 1015,7 - 3,1
16.10.2018 00:00:00 16,8 16,8 31 17 59 32 ENE 1015,2 - 1,0
15.10.2018 23:00:00 17,3 17,3 35 19 72 39 ENE 1014,9 - 1,8
15.10.2018 22:00:00 17,2 17,2 39 21 72 39 NE 1014,6 - 1,4
15.10.2018 21:00:00 17,0 17,0 37 20 79 43 ENE 1014,1 - 4,4
15.10.2018 20:00:00 17,6 17,0 43 23 84 45 NE 1013,3 10 0,7
15.10.2018 19:00:00 17,4 17,4 52 28 96 52 NE 1012,6 - 2,6
15.10.2018 18:00:00 17,3 17,3 53 28 87 47 NE 1011,6 - 2,2
15.10.2018 17:00:00 17,9 17,4 50 27 88 47 NE 1011,7 6 0,6
15.10.2018 16:00:00 18,3 17,5 55 30 85 46 NE 1011,1 - 0,4
15.10.2018 15:00:00 19,2 16,4 56 30 85 46 NE 1011,1 7 0,0
15.10.2018 14:00:00 19,7 15,8 54 29 88 47 NE 1011,3 8 0,0
15.10.2018 13:00:00 20,0 15,6 59 32 89 48 NE 1011,0 - 0,0
15.10.2018 12:00:00 20,3 15,3 52 28 97 52 ENE 1012,3 - 0,0
15.10.2018 11:00:00 19,9 15,5 53 29 96 52 NE 1012,1 15 0,0
15.10.2018 10:00:00 20,0 14,8 55 30 92 50 NE 1011,6 - 0,0
15.10.2018 09:00:00 19,8 14,6 48 26 89 48 NE 1011,2 - 0,0
15.10.2018 08:00:00 19,5 14,5 52 28 82 44 NE 1010,7 15 0,0
15.10.2018 07:00:00 19,4 14,2 50 27 80 43 NE 1010,9 - 0,0
15.10.2018 06:00:00 19,3 14,8 44 24 77 42 NE 1011,4 - 0,0
15.10.2018 05:00:00 19,6 15,9 46 25 80 43 NE 1011,8 - 0,0
15.10.2018 04:00:00 19,5 16,0 44 24 74 40 NE 1011,9 - 0,0
15.10.2018 03:00:00 19,5 15,2 41 22 71 38 NE 1012,5 - 0,0
15.10.2018 02:00:00 19,6 14,6 42 23 70 38 NE 1012,9 - 0,0
15.10.2018 01:00:00 19,5 14,7 42 23 67 36 NE 1013,4 - 0,0
15.10.2018 00:00:00 19,5 15,6 38 21 62 34 NE 1013,8 - 0,0
14.10.2018 23:00:00 19,7 16,0 35 19 65 35 ENE 1013,9 - 0,0
14.10.2018 22:00:00 19,5 15,4 32 17 55 30 ENE 1014,0 - 0,0
14.10.2018 21:00:00 19,5 15,6 29 16 55 30 ENE 1014,0 - 0,0
14.10.2018 20:00:00 19,5 16,7 24 13 48 26 ENE 1014,5 15 0,0
14.10.2018 19:00:00 19,2 17,3 30 16 54 29 NE 1013,8 - 0,0
14.10.2018 18:00:00 19,7 17,7 33 18 63 34 ENE 1013,7 - 0,0
14.10.2018 17:00:00 20,4 17,2 31 17 58 32 ENE 1013,9 - 0,0
14.10.2018 16:00:00 20,0 16,6 35 19 61 33 ENE 1014,4 - 0,0
14.10.2018 15:00:00 21,2 16,6 33 18 57 31 ENE 1014,8 - 0,0
14.10.2018 14:00:00 20,3 16,7 35 19 61 33 ENE 1015,3 11 0,0
14.10.2018 13:00:00 20,3 16,7 34 18 61 33 ENE 1016,4 - 0,0
14.10.2018 12:00:00 20,7 17,7 32 17 60 33 ENE 1016,6 - 0,0
14.10.2018 11:00:00 19,9 18,6 31 17 58 31 ENE 1016,4 15 -
14.10.2018 10:00:00 19,6 18,8 32 18 50 27 NE 1016,6 - 0,0
14.10.2018 09:00:00 19,2 18,5 31 17 51 28 NE 1016,5 - 0,0
14.10.2018 08:00:00 17,4 17,4 29 15 42 23 NE 1016,1 15 0,0
14.10.2018 07:00:00 16,8 16,8 31 17 44 24 NE 1016,3 - 0,0
14.10.2018 06:00:00 16,7 16,4 27 15 40 21 NE 1016,8 - 0,0
14.10.2018 05:00:00 16,6 16,0 24 13 33 18 NE 1017,3 15 0,0
14.10.2018 04:00:00 16,6 15,6 24 13 37 20 NE 1017,7 - 0,0
14.10.2018 03:00:00 16,6 15,8 25 14 35 19 NE 1018,1 - 0,0
14.10.2018 02:00:00 16,0 15,5 24 13 36 20 NE 1018,6 - 0,2
14.10.2018 01:00:00 16,1 15,6 26 14 37 20 NE 1018,7 - 0,0
14.10.2018 00:00:00 16,5 15,4 23 12 34 19 NE 1019,3 - 0,0
13.10.2018 23:00:00 16,5 15,9 24 13 35 19 NE 1019,4 - 0,0
13.10.2018 22:00:00 17,1 16,5 20 11 31 17 NE 1019,5 - 0,0
13.10.2018 21:00:00 17,9 17,4 22 12 30 16 NE 1019,5 - 0,0
13.10.2018 20:00:00 19,0 17,8 18 10 31 17 NE 1019,6 - 0,0
13.10.2018 19:00:00 19,5 18,7 17 9 33 18 ENE 1019,6 - 0,0
13.10.2018 18:00:00 20,5 15,5 18 10 40 21 E 1019,6 - 0,0
13.10.2018 17:00:00 21,3 16,7 21 11 41 22 ENE 1019,9 17 0,0
13.10.2018 16:00:00 20,9 17,1 26 14 42 23 ENE 1020,3 - 0,0
13.10.2018 15:00:00 21,7 17,7 22 12 42 23 E 1020,8 - 0,0
13.10.2018 14:00:00 22,4 18,0 21 11 39 21 E 1021,4 - 0,0
13.10.2018 13:00:00 21,9 17,7 20 11 43 23 E 1022,1 - 0,0
13.10.2018 12:00:00 22,1 17,0 24 13 43 23 ENE 1022,3 - 0,0
13.10.2018 11:00:00 20,9 15,4 18 10 32 17 NE 1022,5 - 0,0
13.10.2018 10:00:00 18,9 15,4 21 11 29 16 NE 1022,4 - 0,0
13.10.2018 09:00:00 16,9 15,4 13 7 19 10 NE 1022,5 - 0,0
13.10.2018 08:00:00 17,3 13,8 9 5 19 10 E 1022,4 20 0,0
13.10.2018 07:00:00 17,8 13,3 12 6 16 9 ENE 1022,5 - 0,0
13.10.2018 06:00:00 18,0 13,7 12 7 16 9 NE 1022,5 - 0,0
13.10.2018 05:00:00 15,9 15,4 7 4 16 9 ENE 1022,9 - 0,0
13.10.2018 04:00:00 16,2 15,6 10 5 16 9 ENE 1023,3 - 0,0
13.10.2018 03:00:00 16,1 15,6 13 7 25 14 ENE 1023,5 - 0,0
13.10.2018 02:00:00 16,0 15,8 18 10 25 14 NE 1023,3 - 0,0
13.10.2018 01:00:00 16,4 16,1 16 9 24 13 ENE 1023,6 - 0,0
13.10.2018 00:00:00 16,7 16,7 17 9 26 14 NE 1024,0 - 0,0
12.10.2018 23:00:00 16,9 16,6 17 9 27 14 NE 1024,5 - 0,0
12.10.2018 22:00:00 17,5 17,3 13 7 18 10 NE 1024,4 - 0,0
12.10.2018 21:00:00 18,4 17,2 11 6 16 8 NE 1024,3 - 0,0
12.10.2018 20:00:00 19,2 17,7 10 6 15 8 ENE 1024,1 20 0,0
12.10.2018 19:00:00 19,6 17,2 10 5 15 8 ESE 1023,7 - 0,0
12.10.2018 18:00:00 21,4 17,2 6 4 16 9 SE 1023,5 - 0,0
12.10.2018 17:00:00 22,1 16,8 9 5 21 12 E 1023,4 - 0,0
12.10.2018 16:00:00 23,3 17,1 10 5 24 13 ENE 1024,0 - 0,0
12.10.2018 15:00:00 22,6 17,1 12 7 24 13 E 1023,9 - 0,0
12.10.2018 14:00:00 22,1 16,6 14 8 27 14 E 1024,3 - 0,0
12.10.2018 13:00:00 21,6 17,4 15 8 36 19 ENE 1024,7 - 0,0
12.10.2018 12:00:00 22,0 17,6 18 10 34 18 ENE 1024,4 - 0,0
12.10.2018 11:00:00 21,2 17,6 14 8 25 13 NE 1024,4 25 0,0
12.10.2018 10:00:00 19,0 18,3 16 9 26 14 NE 1024,0 - 0,0
12.10.2018 09:00:00 17,6 17,6 18 10 31 17 NE 1023,5 - 0,0
12.10.2018 08:00:00 16,6 16,6 23 13 35 19 NE 1022,5 22 0,0
12.10.2018 07:00:00 16,6 16,6 21 11 34 18 NE 1022,0 - 0,2
12.10.2018 06:00:00 16,8 16,8 23 12 33 18 NE 1021,9 - 0,0
12.10.2018 05:00:00 16,6 16,6 23 13 33 18 NE 1021,4 15 0,0
12.10.2018 04:00:00 16,9 16,9 23 12 34 18 NE 1021,2 - 0,0
12.10.2018 03:00:00 16,9 16,9 24 13 35 19 NE 1021,3 - 0,0

tt = temperature
td = dewpoint
ff = wind speed
fx = gusts
dd = wind direction
ppp = reduced air pressure
vv = visibility
rr = precipitation

Next stations